Location: Unspecified
(0.0000°N, 0.0000°E)
Time: 05:31:17
(UTC+00:00)

Explorer 11/Cluster Stage 4 - All Passes

Search period start: 21 May 2026 00:00
Search period end: 31 May 2026 00:00
Orbit: 463 x 1174 km, 28.8° (Epoch: 20 May)

Date Brightness Start Highest point End Pass type
(mag) Time Alt. Az. Time Alt. Az. Time Alt. Az.
21 May - 00:52:34 10° N 00:54:21 11° NNE 00:56:02 10° NE night (unlit)
21 May - 02:37:46 10° NW 02:42:45 39° NNE 02:46:53 10° E night (unlit)
21 May - 04:26:04 10° W 04:30:06 32° SSW 04:33:37 10° SSE visible
21 May - 13:29:22 10° SSW 13:33:36 23° SSE 13:38:28 10° E daylight
21 May - 15:15:14 10° WSW 15:21:20 90° NNW 15:28:38 10° ENE daylight
21 May - 17:03:57 10° W 17:09:46 28° NNW 17:16:08 10° NNE daylight
21 May - 18:58:02 10° NNW 18:59:06 10° NNW 19:00:10 10° N visible
22 May - 00:26:59 10° N 00:29:38 13° NNE 00:32:06 10° NE night (unlit)
22 May - 02:12:43 10° NW 02:18:06 42° NNE 02:22:30 10° E night (unlit)
22 May - 04:01:11 10° W 04:05:31 32° SSW 04:09:12 10° SSE visible
22 May - 13:04:54 10° SSW 13:08:51 22° SSE 13:13:22 10° E daylight
22 May - 14:50:41 10° WSW 14:56:28 88° NNW 15:03:31 10° ENE daylight
22 May - 16:39:20 10° W 16:44:52 27° NNW 16:51:00 10° NNE daylight
23 May - 00:01:32 10° N 00:04:52 14° NNE 00:07:56 10° NE night (unlit)
23 May - 01:47:38 10° NW 01:53:24 45° NNE 01:58:06 10° E night (unlit)
23 May - 03:36:16 10° W 03:40:53 33° SSW 03:44:47 10° SSE visible
23 May - 12:40:29 10° SSW 12:44:07 20° SSE 12:48:18 10° E daylight
23 May - 14:26:10 10° WSW 14:31:39 86° NNW 14:38:25 10° ENE daylight
23 May - 16:14:47 10° W 16:19:59 26° NNW 16:25:50 10° NNE daylight
23 May - 23:36:11 10° NNW 23:40:04 15° NNE 23:43:39 10° NE night (unlit)
24 May - 01:22:32 10° NW 01:28:40 48° NNE 01:33:40 10° ESE night (unlit)
24 May - 03:11:17 10° W 03:16:14 34° SSW 03:20:21 10° SSE night (unlit)
24 May - 12:16:05 10° SSW 12:19:26 19° SSE 12:23:15 10° ESE daylight
24 May - 14:01:40 10° WSW 14:06:51 84° NNW 14:13:18 10° ENE daylight
24 May - 15:50:17 10° WNW 15:55:07 24° NNW 16:00:38 10° NNE daylight
24 May - 23:10:54 10° NNW 23:15:14 17° NNE 23:19:15 10° ENE night (unlit)
25 May - 00:57:24 10° NW 01:03:53 51° NNE 01:09:13 10° ESE night (unlit)
25 May - 02:46:16 10° W 02:51:32 35° SSW 02:55:55 10° SSE night (unlit)
25 May - 11:51:42 10° SSW 11:54:47 18° SSE 11:58:15 10° ESE daylight
25 May - 13:37:13 10° WSW 13:42:06 82° NNW 13:48:13 10° ENE daylight
25 May - 15:25:51 10° WNW 15:30:19 22° NNW 15:35:25 10° NNE daylight
25 May - 22:45:38 10° NNW 22:50:23 18° NNE 22:54:47 10° ENE visible
26 May - 00:32:16 10° NW 00:39:04 54° NNE 00:44:42 10° ESE night (unlit)
26 May - 02:21:13 10° W 02:26:49 36° SSW 02:31:27 10° SE night (unlit)
26 May - 11:27:18 10° S 11:30:08 17° SSE 11:33:17 10° ESE daylight
26 May - 13:12:46 10° WSW 13:17:24 79° NNW 13:23:09 10° NE daylight
26 May - 15:01:27 10° WNW 15:05:32 21° NNW 15:10:12 10° NNE daylight
26 May - 22:20:26 10° NNW 22:25:29 19° NNE 22:30:13 10° ENE visible
27 May - 00:07:08 10° NW 00:14:13 56° NNE 00:20:10 10° ESE night (unlit)
27 May - 01:56:07 10° W 02:02:03 37° SSW 02:06:59 10° SE night (unlit)
27 May - 11:02:54 10° S 11:05:31 17° SSE 11:08:23 10° ESE daylight
27 May - 12:48:21 10° WSW 12:52:43 76° NNW 12:58:07 10° NE daylight
27 May - 14:37:07 10° WNW 14:40:47 19° NNW 14:44:57 10° NNE daylight
27 May - 21:55:16 10° NNW 22:00:34 20° NNE 22:05:36 10° ENE visible
27 May - 23:41:59 10° NW 23:49:18 58° NNE 23:55:34 10° ESE night (unlit)
28 May - 01:31:01 10° W 01:37:15 38° SSW 01:42:28 10° SE night (unlit)
28 May - 10:38:29 10° S 10:40:55 16° SSE 10:43:32 10° ESE daylight
28 May - 12:23:56 10° WSW 12:28:05 73° NNW 12:33:08 10° NE daylight
28 May - 14:12:50 10° WNW 14:16:04 17° NNW 14:19:42 10° NNE daylight
28 May - 21:30:09 10° NNW 21:35:38 21° NNE 21:40:53 10° ENE visible
28 May - 23:16:52 10° NW 23:24:22 60° NNE 23:30:56 10° ESE night (unlit)
29 May - 01:05:54 10° W 01:12:24 39° SSW 01:17:54 10° SE night (unlit)
29 May - 10:14:01 10° S 10:16:20 16° SSE 10:18:46 10° ESE daylight
29 May - 11:59:31 10° WSW 12:03:28 69° NNW 12:08:12 10° NE daylight
29 May - 13:48:37 10° WNW 13:51:23 15° NNW 13:54:27 10° NNE daylight
29 May - 21:05:06 10° NNW 21:10:40 21° NNE 21:16:07 10° ENE visible
29 May - 22:51:46 10° NW 22:59:24 62° NNE 23:06:14 10° ESE visible
30 May - 00:40:47 10° W 00:47:31 39° SSW 00:53:19 10° SE night (unlit)
30 May - 09:49:31 10° S 09:51:45 15° SSE 09:54:03 10° ESE daylight
30 May - 11:35:05 10° WSW 11:38:52 66° NNW 11:43:18 10° NE daylight
30 May - 13:24:28 10° NW 13:26:43 13° NNW 13:29:10 10° N daylight
30 May - 20:40:05 10° NNW 20:45:42 22° NNE 20:51:17 10° ENE visible
30 May - 22:26:41 10° NW 22:34:24 63° NNE 22:41:30 10° ESE visible
